Home   Weather   Greece   Skopelos   Past weeks
Flag for Greece

Past Weather in Skopelos, Greece — Yesterday and Last 2 Weeks

Currently: 86 °F. Clear. (Weather station: Skiathos Island, Greece). See more current weather

Past Weather in Skopelos — Graph

°F

Skopelos Temperature Yesterday

Maximum temperature yesterday: 93 °F (at 12:20 pm)
Minimum temperature yesterday: 86 °F (at 7:50 am)
Average temperature yesterday: 90 °F

High & Low Weather Summary for the Past Weeks

 TemperatureHumidityPressure
High99 °F (Jul 18, 6:50 pm)83% (Jul 4, 11:20 pm)29.98 "Hg (Jul 4, 11:20 pm)
Low72 °F (Jul 4, 11:20 pm)30% (Jul 16, 5:20 pm)29.77 "Hg (Jul 4, 11:20 pm)
Average87 °F55%29.86 "Hg
* Reported Jul 4 11:20 pm — Jul 19 11:20 pm, Skopelos. Weather by CustomWeather, © 2024

Note: Actual official high and low records may vary slightly from our data, if they occured in-between our weather recording intervals... More about our weather records

Skopelos Weather History for the Previous 24 Hours

Scroll right to see more
 ConditionsComfort  
Time TempWeatherWind HumidityBarometerVisibility
11:20 pm
Fri, Jul 19
86 °FClear.6 mph70%29.83 "Hg10 mi
10:50 pm86 °FClear.6 mph70%29.83 "Hg10 mi
10:20 pm88 °FClear.7 mph62%29.83 "Hg10 mi
9:50 pm90 °FClear.9 mph55%29.83 "Hg10 mi
9:20 pm90 °FClear.7 mph41%29.80 "Hg10 mi
8:50 pm91 °FClear.5 mph41%29.80 "Hg10 mi
8:20 pm91 °FSunny.3 mph41%29.80 "Hg10 mi
7:50 pm91 °FSunny.5 mph41%29.80 "Hg10 mi
7:20 pm91 °FSunny.5 mph44%29.80 "Hg10 mi
6:50 pm91 °FSunny.6 mph44%29.80 "Hg10 mi
6:20 pm91 °FSunny.6 mph46%29.80 "Hg10 mi
5:50 pm91 °FSunny.6 mph46%29.80 "Hg10 mi
5:20 pm91 °FSunny.7 mph52%29.83 "Hg10 mi
4:20 pm91 °FSunny.9 mph56%29.86 "Hg10 mi
3:50 pm91 °FSunny.8 mph56%29.86 "Hg10 mi
3:20 pm93 °FSunny.10 mph56%29.86 "Hg10 mi
2:50 pm93 °FSunny.10 mph56%29.86 "Hg10 mi
2:20 pm91 °FSunny.14 mph63%29.89 "Hg10 mi
1:50 pm91 °FSunny.14 mph63%29.89 "Hg10 mi
1:20 pm93 °FSunny.10 mph63%29.89 "Hg10 mi
12:50 pm93 °FSunny.10 mph63%29.89 "Hg10 mi
12:20 pm93 °FSunny.9 mph63%29.89 "Hg10 mi
11:20 am91 °FSunny.9 mph56%29.89 "Hg10 mi
10:50 am91 °FSunny.9 mph56%29.89 "Hg10 mi
10:20 am88 °FSunny.8 mph66%29.89 "Hg10 mi
9:50 am88 °FSunny.8 mph66%29.89 "Hg10 mi
9:20 am88 °FSunny.8 mph59%29.89 "Hg10 mi
8:20 am86 °FSunny.8 mph66%29.86 "Hg10 mi
7:50 am86 °FSunny.8 mph66%29.86 "Hg10 mi
Weather by CustomWeather, © 2024

See weather overview